Weather History for Aurora, OR

Change the Weather History Date:

Saturday, August 9, 2014

  Actual Average Record
Temperature  
Mean Temperature 68 °F -  
Max Temperature 86 °F - 99 °F (2004)
Min Temperature 52 °F - 52 °F (2002)
Degree Days  
Heating Degree Days 0    
Month to date heating degree days 0  
Since 1 June heating degree days 92  
Since 1 July heating degree days 5  
Cooling Degree Days 4    
Month to date cooling degree days 68  
Year to date cooling degree days 302  
Since 1 June cooling degree days 275  
Growing Degree Days 18 (Base 50)    
Moisture  
Dew Point 50 °F    
Average Humidity 61    
Maximum Humidity 93    
Minimum Humidity 29    
Precipitation  
Precipitation 0.00 in - 0.03 in (2008)
Month to date precipitation 0.07  
Year to date precipitation 23.83  
Sea Level Pressure  
Sea Level Pressure 30.08 in    
Wind  
Wind Speed 7 mph (North)    
Max Wind Speed 20 mph    
Max Gust Speed 24 mph    
Visibility 10 miles    
Events      
T = Trace of Precipitation, MM = Missing Value Source: NWS Daily Summary

Daily Weather History Graph

Daily Weather History Graph

Search for Another Location

Airport:

Trip Planner

Search our weather history database for the weather conditions in past years. The results will help you decide how hot, cold, wet, or windy it might be!

Date:

Astronomy

Aug. 09, 2014 Rise Set
Actual Time 6:05 AM PDT 8:27 PM PDT
Civil Twilight 5:32 AM PDT 8:59 PM PDT
Nautical Twilight 4:51 AM PDT 9:40 PM PDT
Astronomical Twilight 4:05 AM PDT 10:26 PM PDT
Moon 7:31 PM PDT (8/9) 4:52 AM PDT (8/9)
Length of Visible Light 15h 27m
Length of Day
14h 21m
Waxing Gibbous, 99% of the Moon is Illuminated
Aug 9
Waxing Gibbous
Aug 10
Full
Aug 17
Last Quarter
Aug 25
New
Sep 2
First Quarter

Hourly Weather History & Observations

Time (PDT) Temp. Dew Point Humidity Pressure Visibility Wind Dir Wind Speed Gust Speed Precip Events Conditions
12:53 AM 57.9 °F 48.9 °F 72% 30.11 in 10.0 mi North 6.9 mph - N/A   Clear
1:53 AM 57.9 °F 48.0 °F 70% 30.12 in 10.0 mi North 3.5 mph - N/A   Clear
2:53 AM 57.0 °F 48.0 °F 72% 30.11 in 10.0 mi Calm Calm - N/A   Clear
3:53 AM 55.9 °F 46.9 °F 72% 30.11 in 10.0 mi Calm Calm - N/A   Clear
4:53 AM 54.0 °F 48.0 °F 80% 30.12 in 10.0 mi Calm Calm - N/A   Clear
5:53 AM 53.1 °F 51.1 °F 93% 30.12 in 10.0 mi Calm Calm - N/A   Clear
6:53 AM 54.0 °F 52.0 °F 93% 30.13 in 10.0 mi Calm Calm - N/A   Clear
7:53 AM 57.9 °F 51.1 °F 78% 30.14 in 10.0 mi Calm Calm - N/A   Clear
8:53 AM 63.0 °F 52.0 °F 67% 30.13 in 10.0 mi NNE 4.6 mph - N/A   Clear
10:53 AM 70.0 °F 53.1 °F 55% 30.12 in 10.0 mi North 10.4 mph - N/A   Clear
11:53 AM 73.9 °F 52.0 °F 46% 30.11 in 10.0 mi NNE 9.2 mph - N/A   Clear
12:53 PM 78.1 °F 52.0 °F 40% 30.09 in 10.0 mi North 13.8 mph 20.7 mph N/A   Clear
1:53 PM 81.0 °F 52.0 °F 36% 30.07 in 10.0 mi North 12.7 mph - N/A   Clear
2:53 PM 82.9 °F 50.0 °F 32% 30.06 in 10.0 mi North 13.8 mph 20.7 mph N/A   Clear
3:53 PM 84.0 °F 48.0 °F 28% 30.04 in 10.0 mi North 13.8 mph - N/A   Clear
4:53 PM 84.9 °F 48.9 °F 29% 30.02 in 10.0 mi North 13.8 mph - N/A   Clear
5:53 PM 84.0 °F 48.0 °F 28% 30.01 in 10.0 mi North 10.4 mph - N/A   Clear
6:53 PM 84.0 °F 48.0 °F 28% 30.01 in 10.0 mi North 11.5 mph - N/A   Clear
8:53 PM 75.9 °F 50.0 °F 40% 30.02 in 10.0 mi North 8.1 mph - N/A   Clear
9:53 PM 72.0 °F 55.0 °F 55% 30.04 in 10.0 mi North 6.9 mph - N/A   Clear
10:53 PM 69.1 °F 53.1 °F 57% 30.04 in 10.0 mi North 8.1 mph - N/A   Clear
11:53 PM 66.9 °F 53.1 °F 61% 30.05 in 10.0 mi NNE 6.9 mph - N/A   Clear